DK4MDA-13 Weather Reports


time (UTC)temp
C
wind
direction
speed
KPH
gust
KPH
rain 1hr
cm
rain 24hr
cm
rain mn
cm
humidity
%
barometer
mb
20260506193206 11 31 6.4 12.9 0.00 3.58 3.58 91 1007.4
20260506192706 11 26 6.4 14.5 0.00 3.58 3.58 91 1007.5
20260506192206 11 60 6.4 14.5 0.00 3.58 3.58 91 1007.6
20260506191706 11 31 6.4 9.7 0.00 3.58 3.58 91 1007.7
20260506191206 12 58 6.4 12.9 0.00 3.58 3.58 91 1007.6
20260506190706 12 26 4.8 11.3 0.00 3.58 3.58 91 1007.5
20260506190206 12 26 4.8 12.9 0.00 3.58 3.58 91 1007.4
20260506185706 12 58 3.2 8.0 0.00 3.58 3.58 90 1007.4
20260506185206 12 62 3.2 6.4 0.00 3.58 3.58 90 1007.4
20260506184706 12 81 3.2 6.4 0.00 3.58 3.58 90 1007.1
20260506184206 12 42 1.6 6.4 0.00 3.58 3.58 90 1007.1
20260506183706 12 88 1.6 6.4 0.00 3.58 3.58 90 1007.1
20260506183206 12 100 3.2 6.4 0.00 3.58 3.58 89 1007.0
20260506182706 12 53 3.2 6.4 0.00 3.58 3.58 89 1006.9
20260506182206 12 78 4.8 12.9 0.00 3.58 3.58 89 1006.7
20260506181706 12 93 4.8 11.3 0.00 3.58 3.58 89 1006.7
20260506181206 12 41 4.8 8.0 0.00 3.58 3.58 90 1006.8
20260506180706 12 46 6.4 14.5 0.00 3.58 3.58 90 1006.7
20260506180206 12 66 6.4 12.9 0.00 3.58 3.58 90 1006.7
20260506175706 12 35 4.8 12.9 0.00 3.58 3.58 90 1006.8
20260506175206 12 48 3.2 8.0 0.00 3.58 3.58 90 1006.8
20260506174706 12 45 3.2 8.0 0.00 3.58 3.58 90 1006.8
20260506174206 12 62 3.2 6.4 0.00 3.58 3.58 90 1006.9
20260506173840 12 102 3.2 8.0 0.00 3.58 3.58 89 1007.0
20260506173800 12 102 3.2 8.0 0.00 3.58 3.58 89 1007.0
20260506173706 12 102 3.2 8.0 0.00 3.58 3.58 89 1007.0
20260506173206 12 72 3.2 11.3 0.00 3.58 3.58 89 1006.9
20260506172706 12 44 3.2 6.4 0.00 3.58 3.58 90 1006.9
20260506172206 12 84 3.2 8.0 0.00 3.58 3.58 89 1006.9
20260506171706 12 31 3.2 6.4 0.00 3.58 3.58 90 1006.6
20260506171206 12 78 3.2 9.7 0.00 3.58 3.58 89 1006.7
20260506170706 12 71 4.8 8.0 0.00 3.58 3.58 90 1006.7
20260506170206 12 42 3.2 9.7 0.00 3.58 3.58 90 1006.7
20260506165706 12 45 3.2 8.0 0.00 3.58 3.58 90 1006.7
20260506165206 12 63 3.2 8.0 0.00 3.58 3.58 89 1006.7
20260506164706 12 81 3.2 8.0 0.00 3.58 3.58 89 1006.7
20260506164206 12 40 3.2 11.3 0.00 3.58 3.58 89 1006.7
20260506163706 12 45 4.8 9.7 0.00 3.58 3.58 89 1006.7
20260506163206 12 86 4.8 8.0 0.00 3.58 3.58 90 1006.6
20260506162706 12 68 3.2 11.3 0.00 3.58 3.58 90 1006.6
20260506162206 12 90 3.2 6.4 0.00 3.58 3.58 90 1006.6
20260506161706 12 39 4.8 4.8 0.00 3.58 3.58 91 1006.5
20260506161206 12 48 4.8 14.5 0.00 3.58 3.58 90 1006.5
20260506160706 12 61 4.8 12.9 0.00 3.58 3.58 91 1006.3
20260506160206 12 41 4.8 8.0 0.03 3.58 3.58 91 1006.2
20260506155706 12 96 4.8 12.9 0.03 3.58 3.58 91 1006.2
20260506155206 12 68 3.2 11.3 0.05 3.58 3.58 92 1006.3
20260506154706 12 73 3.2 8.0 0.05 3.58 3.58 92 1006.4
20260506154206 12 56 3.2 8.0 0.05 3.58 3.58 92 1006.4
20260506153706 12 73 3.2 8.0 0.05 3.58 3.58 92 1006.5
20260506153206 12 81 3.2 8.0 0.05 3.58 3.58 93 1006.6
20260506152706 12 65 3.2 8.0 0.05 3.58 3.58 93 1006.5
20260506152206 12 61 3.2 4.8 0.05 3.58 3.58 93 1006.6
20260506151706 12 94 4.8 11.3 0.05 3.58 3.58 92 1006.5
20260506151206 12 93 4.8 14.5 0.05 3.58 3.58 92 1006.5
20260506150706 12 77 3.2 12.9 0.05 3.58 3.58 93 1006.4
20260506150206 12 86 3.2 6.4 0.03 3.56 3.56 93 1006.4
20260506145707 12 56 3.2 4.8 0.03 3.56 3.56 93 1006.5
20260506145206 12 74 3.2 8.0 0.00 3.53 3.53 92 1006.6
20260506144706 12 31 3.2 8.0 0.00 3.53 3.53 92 1006.5
20260506144207 12 55 3.2 6.4 0.00 3.53 3.53 92 1006.6
20260506143707 12 48 3.2 8.0 0.00 3.53 3.53 92 1006.7
20260506143207 12 88 4.8 8.0 0.00 3.53 3.53 91 1006.6
20260506142707 12 52 3.2 8.0 0.00 3.53 3.53 91 1006.6
20260506142207 12 83 3.2 9.7 0.00 3.53 3.53 91 1006.6
20260506141707 12 39 3.2 6.4 0.00 3.53 3.53 91 1006.7
20260506141207 12 43 3.2 11.3 0.00 3.53 3.53 91 1006.6
20260506140707 12 36 3.2 8.0 0.00 3.53 3.53 90 1006.6
20260506140207 12 72 3.2 6.4 0.00 3.53 3.53 90 1006.6
20260506135707 12 101 3.2 8.0 0.00 3.53 3.53 89 1006.6
20260506135207 13 31 3.2 8.0 0.00 3.53 3.53 89 1006.6
20260506134707 13 72 1.6 11.3 0.00 3.53 3.53 89 1006.6
20260506134207 13 36 1.6 6.4 0.00 3.53 3.53 90 1006.7
20260506133707 13 26 3.2 6.4 0.00 3.53 3.53 90 1006.6
20260506133207 13 47 3.2 6.4 0.00 3.53 3.53 90 1006.6
20260506132707 13 77 3.2 6.4 0.00 3.53 3.53 90 1006.6
20260506132207 13 85 3.2 6.4 0.00 3.53 3.53 91 1006.6
20260506131707 13 72 3.2 8.0 0.00 3.53 3.53 91 1006.5
20260506131207 12 93 3.2 8.0 0.00 3.53 3.53 91 1006.5
20260506130707 12 60 3.2 8.0 0.00 3.53 3.53 92 1006.5
20260506130207 12 61 3.2 9.7 0.00 3.53 3.53 92 1006.5
20260506125707 12 68 3.2 6.4 0.00 3.53 3.53 93 1006.6
20260506125207 12 47 3.2 6.4 0.03 3.53 3.53 94 1006.5
20260506124707 12 95 4.8 8.0 0.03 3.53 3.53 93 1006.6
20260506124207 12 69 3.2 9.7 0.03 3.53 3.53 94 1006.6
20260506123707 12 35 3.2 6.4 0.05 3.53 3.53 94 1006.6
20260506123207 12 97 3.2 6.4 0.08 3.53 3.53 94 1006.6
20260506122707 12 66 1.6 4.8 0.10 3.53 3.53 94 1006.6
20260506122207 12 95 3.2 4.8 0.10 3.53 3.53 95 1006.6
20260506121707 12 86 3.2 8.0 0.10 3.53 3.53 95 1006.6
20260506121207 12 38 3.2 6.4 0.10 3.53 3.53 95 1006.6
20260506120707 12 91 3.2 4.8 0.10 3.53 3.53 95 1006.5
20260506120207 12 61 3.2 4.8 0.10 3.53 3.53 95 1006.5
20260506115707 11 44 4.8 9.7 0.10 3.53 3.53 95 1006.5
20260506115207 11 37 4.8 9.7 0.08 3.51 3.51 94 1006.5
20260506114707 11 26 4.8 8.0 0.08 3.51 3.51 94 1006.5
20260506114207 11 26 4.8 9.7 0.08 3.51 3.51 94 1006.7
20260506113707 11 26 3.2 8.0 0.08 3.48 3.48 94 1006.7
20260506113207 11 37 3.2 6.4 0.05 3.45 3.45 94 1006.6
20260506112707 11 41 3.2 6.4 0.03 3.43 3.43 94 1006.6
20260506112207 11 31 3.2 6.4 0.03 3.43 3.43 94 1006.7
20260506111707 11 31 4.8 8.0 0.03 3.43 3.43 94 1006.5
20260506111207 11 38 4.8 6.4 0.03 3.43 3.43 94 1006.6
20260506110707 11 26 4.8 6.4 0.03 3.43 3.43 94 1006.6
20260506110207 11 38 4.8 8.0 0.03 3.43 3.43 94 1006.5
20260506105707 11 26 4.8 12.9 0.03 3.43 3.43 93 1006.3
20260506105207 11 26 3.2 8.0 0.03 3.43 3.43 94 1006.3
20260506104707 11 84 1.6 3.2 0.03 3.43 3.43 94 1006.4
20260506104207 11 39 3.2 4.8 0.03 3.43 3.43 94 1006.4
20260506103707 11 21 3.2 6.4 0.00 3.40 3.40 94 1006.3
20260506103207 11 26 3.2 8.0 0.00 3.40 3.40 94 1006.4
20260506102707 11 26 1.6 4.8 0.00 3.40 3.40 94 1006.3
20260506102207 11 81 3.2 4.8 0.00 3.40 3.40 94 1006.3
20260506101707 11 54 3.2 8.0 0.00 3.40 3.40 93 1006.1
20260506101207 11 61 3.2 6.4 0.00 3.40 3.40 93 1006.2
20260506100707 11 35 4.8 9.7 0.00 3.40 3.40 94 1006.1
20260506100207 11 31 3.2 8.0 0.00 3.40 3.40 94 1006.1
20260506095707 11 16 3.2 8.0 0.00 3.40 3.40 94 1006.1
20260506095207 11 79 3.2 6.4 0.00 3.40 3.40 93 1006.1
20260506094707 11 50 3.2 6.4 0.00 3.40 3.40 94 1006.0
20260506094207 11 35 3.2 9.7 0.00 3.40 3.40 94 1006.0
20260506093707 11 35 3.2 6.4 0.00 3.40 3.40 94 1006.0
20260506093207 11 36 4.8 11.3 0.00 3.40 3.40 93 1006.1
20260506092707 11 80 4.8 8.0 0.00 3.40 3.40 94 1005.9
20260506092207 11 21 4.8 8.0 0.00 3.43 3.40 93 1006.1
20260506091707 10 31 4.8 12.9 0.00 3.43 3.40 93 1005.9
20260506091207 10 53 4.8 9.7 0.00 3.43 3.40 93 1005.9
20260506090707 10 26 6.4 9.7 0.03 3.43 3.40 94 1005.9
20260506090207 10 26 4.8 12.9 0.03 3.43 3.40 93 1005.8
20260506085707 10 26 4.8 9.7 0.03 3.43 3.40 94 1005.9
20260506085207 10 44 4.8 8.0 0.03 3.43 3.40 94 1005.9
20260506084707 10 37 6.4 14.5 0.03 3.43 3.40 94 1005.8
20260506084207 10 31 6.4 12.9 0.05 3.43 3.40 95 1005.8
20260506083707 10 21 4.8 9.7 0.05 3.43 3.40 94 1005.7
20260506083207 10 31 3.2 9.7 0.05 3.43 3.40 95 1005.7
20260506082707 10 26 3.2 6.4 0.08 3.43 3.40 95 1005.7
20260506082207 10 106 4.8 6.4 0.08 3.43 3.40 95 1005.6
20260506081707 10 45 6.4 11.3 0.10 3.43 3.40 95 1005.7
20260506081207 10 39 6.4 8.0 0.13 3.43 3.40 95 1005.7
20260506080707 10 49 6.4 11.3 0.10 3.40 3.38 95 1005.7
20260506080207 10 31 8.0 14.5 0.13 3.40 3.38 95 1005.7
20260506073207 10 43 4.8 8.0 0.28 3.38 3.35 95 1005.7
20260506072707 10 35 3.2 8.0 0.28 3.35 3.33 95 1005.5
20260506072207 10 41 1.6 4.8 0.30 3.35 3.33 95 1005.6
20260506071707 10 48 3.2 4.8 0.30 3.33 3.30 95 1005.6
20260506071207 10 36 4.8 6.4 0.30 3.30 3.28 95 1005.6
20260506070707 10 767 4.8 8.0 0.33 3.30 3.28 95 1005.6
20260506070207 10 31 4.8 9.7 0.33 3.28 3.25 95 1005.5
20260506062207 10 767 4.8 6.4 0.28 3.05 3.02 95 1005.2
20260506061707 10 37 4.8 9.7 0.30 3.02 3.00 95 1005.2
20260506061207 10 39 6.4 9.7 0.30 3.00 2.97 95 1005.2
20260506060707 10 21 6.4 12.9 0.30 2.97 2.95 95 1005.2
20260506060207 10 26 4.8 8.0 0.30 2.95 2.92 95 1005.2
20260506051207 10 26 6.4 12.9 0.51 2.72 2.67 95 1005.1
20260506050707 10 26 4.8 9.7 0.51 2.69 2.64 95 1005.3
20260506050207 10 767 4.8 9.7 0.51 2.67 2.62 95 1005.3
20260506044707 10 31 6.4 14.5 0.48 2.54 2.49 95 1005.2
20260506044207 10 39 8.0 12.9 0.43 2.46 2.41 95 1005.2
20260506043707 10 39 8.0 17.7 0.41 2.41 2.36 95 1005.2
20260506043207 10 31 6.4 14.5 0.38 2.36 2.31 95 1005.1
20260506042707 10 48 8.0 14.5 0.36 2.31 2.26 95 1005.1
20260506042207 10 26 8.0 17.7 0.36 2.31 2.24 94 1005.1
20260506041707 10 56 6.4 12.9 0.33 2.26 2.18 95 1005.1
20260506041207 10 51 6.4 9.7 0.33 2.24 2.16 95 1005.1
20260506040707 10 42 6.4 12.9 0.33 2.21 2.13 95 1005.0
20260506040207 10 26 6.4 12.9 0.33 2.18 2.11 95 1005.0
20260506035707 10 767 6.4 12.9 0.33 2.16 2.08 95 1005.0
20260506035207 10 38 6.4 12.9 0.30 2.11 2.03 95 1005.1
20260506034707 10 43 6.4 12.9 0.30 2.08 2.01 95 1005.1
20260506034207 10 35 6.4 14.5 0.30 2.06 1.98 95 1005.2
20260506033707 10 26 6.4 14.5 0.33 2.03 1.96 94 1005.2
20260506033207 10 11 8.0 14.5 0.38 2.01 1.93 95 1005.1
20260506032707 10 31 9.7 16.1 0.38 1.98 1.91 95 1005.1
20260506032207 10 16 8.0 17.7 0.43 1.96 1.88 95 1005.3
20260506031707 10 31 8.0 14.5 0.48 1.93 1.85 95 1005.3
20260506031207 10 767 8.0 14.5 0.51 1.91 1.83 95 1005.2
20260506030707 10 31 9.7 17.7 0.56 1.88 1.80 95 1005.3
20260506030207 10 767 8.0 16.1 0.61 1.85 1.78 95 1005.2
20260506025708 10 767 8.0 14.5 0.69 1.83 1.75 95 1005.4
20260506025207 10 41 6.4 14.5 0.74 1.80 1.73 95 1005.4
20260506024708 10 26 6.4 12.9 0.74 1.78 1.70 95 1005.5
20260506024208 10 26 4.8 9.7 0.76 1.75 1.68 94 1005.5
20260506023707 10 26 4.8 8.0 0.76 1.70 1.63 94 1005.5
20260506023208 10 37 6.4 12.9 0.74 1.63 1.55 94 1005.6
20260506022708 10 767 6.4 14.5 0.74 1.60 1.52 94 1005.7
20260506022208 10 31 6.4 9.7 0.69 1.52 1.45 95 1005.7
20260506021708 10 37 6.4 11.3 0.66 1.45 1.37 94 1005.9
20260506021208 10 40 6.4 12.9 0.64 1.40 1.32 94 1005.8
20260506020708 10 42 6.4 9.7 0.58 1.32 1.24 94 1005.8
20260506020208 10 31 6.4 11.3 0.53 1.24 1.17 94 1005.8
20260506015708 11 39 6.4 9.7 0.43 1.14 1.07 94 1005.8
20260506015208 11 36 6.4 9.7 0.38 1.07 0.99 94 1005.8
20260506014708 11 26 4.8 12.9 0.38 1.04 0.97 94 1005.9
20260506014208 11 59 4.8 8.0 0.36 0.99 0.91 94 1005.9
20260506013708 11 42 6.4 14.5 0.33 0.94 0.86 94 1005.9
20260506013208 11 26 6.4 12.9 0.30 0.89 0.81 94 1005.9
20260506012708 11 53 6.4 14.5 0.30 0.86 0.79 94 1005.9
20260506012208 11 767 8.0 14.5 0.30 0.86 0.76 94 1005.8
20260506011708 11 42 6.4 20.9 0.28 0.81 0.71 94 1005.9
20260506011208 11 26 6.4 16.1 0.28 0.79 0.69 94 1005.9
20260506010708 11 48 8.0 14.5 0.25 0.76 0.66 94 1006.0
20260506010208 11 35 8.0 20.9 0.25 0.74 0.64 94 1005.9
20260506005708 11 37 4.8 11.3 0.25 0.74 0.64 94 1005.9
20260506005208 11 26 6.4 16.1 0.25 0.71 0.61 94 1006.0
20260506004708 11 26 6.4 12.9 0.25 0.69 0.58 94 1006.1
20260506004208 11 31 8.0 12.9 0.23 0.66 0.56 94 1006.0
20260506003708 11 21 9.7 16.1 0.23 0.64 0.53 94 1006.0
20260506003208 11 48 9.7 17.7 0.23 0.61 0.51 94 1006.1
20260506002708 11 15 8.0 17.7 0.20 0.58 0.48 94 1006.1
20260506002208 11 767 9.7 14.5 0.20 0.56 0.46 94 1006.3
20260506001708 11 26 9.7 17.7 0.18 0.53 0.43 94 1006.2
20260506001208 11 39 9.7 16.1 0.18 0.51 0.41 94 1006.3
20260506000708 11 56 8.0 17.7 0.20 0.51 0.41 94 1006.4
20260506000208 11 26 6.4 14.5 0.18 0.48 0.38 94 1006.3
20260505235708 11 767 6.4 12.9 0.20 0.48 0.38 94 1006.6
20260505235208 11 54 8.0 12.9 0.20 0.46 0.36 94 1006.6
20260505234708 11 31 6.4 14.5 0.18 0.43 0.33 94 1006.6
20260505234208 11 26 8.0 14.5 0.20 0.43 0.33 94 1006.7
20260505233708 11 31 8.0 14.5 0.20 0.41 0.30 94 1006.8
20260505233208 11 31 8.0 16.1 0.20 0.38 0.28 94 1006.7
20260505232708 11 26 9.7 16.1 0.23 0.38 0.28 94 1006.8
20260505232208 11 26 9.7 16.1 0.20 0.38 0.25 93 1006.7
20260505231708 11 26 9.7 17.7 0.23 0.38 0.25 93 1006.8
20260505231208 11 26 9.7 17.7 0.20 0.36 0.23 93 1006.9
20260505230708 11 8 8.0 14.5 0.18 0.33 0.20 93 1006.8
20260505230208 11 41 9.7 14.5 0.20 0.33 0.20 93 1006.7
20260505225708 11 26 9.7 20.9 0.18 0.30 0.18 93 1006.8
20260505225208 11 21 9.7 16.1 0.15 0.28 0.15 93 1006.8
20260505224708 11 31 9.7 16.1 0.15 0.28 0.15 93 1007.0
20260505224208 11 767 8.0 16.1 0.13 0.25 0.13 92 1007.0
20260505223708 11 21 8.0 14.5 0.10 0.23 0.10 92 1007.1
20260505223208 11 26 9.7 16.1 0.08 0.20 0.08 92 1007.2
20260505222708 11 0 9.7 16.1 0.05 0.18 0.05 92 1007.3
20260505222208 11 31 11.3 19.3 0.05 0.51 0.05 92 1007.2
20260505221708 11 359 9.7 17.7 0.03 0.48 0.03 92 1007.3
20260505221208 11 39 9.7 14.5 0.03 0.48 0.03 92 1007.2
20260505220708 11 26 11.3 17.7 0.03 0.48 0.03 91 1007.3
20260505220208 12 26 9.7 16.1 0.00 0.46 0.00 91 1007.3
20260505215708 12 45 9.7 16.1 0.00 0.46 1.17 91 1007.3
20260505215208 12 39 9.7 16.1 0.00 0.46 1.17 91 1007.4
20260505214708 12 38 11.3 16.1 0.00 0.46 1.17 90 1007.3
20260505214208 12 26 11.3 19.3 0.00 0.46 1.17 90 1007.4
20260505213708 12 26 12.9 19.3 0.00 0.46 1.17 90 1007.4
20260505213208 12 13 11.3 19.3 0.00 0.46 1.17 90 1007.5
20260505212708 12 26 11.3 16.1 0.00 0.46 1.17 90 1007.5
20260505212208 12 26 11.3 17.7 0.00 1.17 1.17 90 1007.5
20260505211708 12 21 11.3 16.1 0.00 1.17 1.17 90 1007.4
20260505211208 12 351 11.3 19.3 0.00 1.17 1.17 90 1007.5
20260505210708 12 26 11.3 19.3 0.00 1.17 1.17 91 1007.4
20260505210208 12 26 12.9 19.3 0.00 1.17 1.17 91 1007.4
20260505205708 12 21 11.3 19.3 0.00 1.17 1.17 91 1007.5
20260505205208 12 31 11.3 20.9 0.00 1.17 1.17 90 1007.6
20260505204708 12 26 12.9 19.3 0.00 1.17 1.17 90 1007.5
20260505204208 12 26 12.9 20.9 0.00 1.17 1.17 90 1007.5
20260505203708 12 26 12.9 19.3 0.00 1.17 1.17 90 1007.5
20260505203208 12 31 11.3 19.3 0.00 1.17 1.17 90 1007.8
20260505202708 12 17 11.3 17.7 0.00 1.17 1.17 90 1007.6
20260505202208 12 21 12.9 19.3 0.00 1.50 1.17 90 1007.7
20260505201708 12 26 14.5 17.7 0.00 1.50 1.17 90 1007.6
20260505201208 12 339 14.5 20.9 0.00 1.50 1.17 90 1007.6
20260505200708 12 26 14.5 20.9 0.00 1.50 1.17 90 1007.7
20260505200208 12 26 14.5 22.5 0.00 1.50 1.17 89 1007.7
20260505195708 12 26 12.9 20.9 0.00 1.50 1.17 89 1007.6
20260505195208 12 26 12.9 19.3 0.00 1.50 1.17 89 1007.6
20260505194708 12 39 12.9 17.7 0.00 1.50 1.17 89 1007.6
20260505194208 12 356 12.9 20.9 0.00 1.50 1.17 89 1007.6
20260505193708 12 17 11.3 22.5 0.00 1.50 1.17 88 1007.7